Milwaukee, WI

5:58 AM CDT on August 24, 2016 (GMT -0500)
Timmerman

Weather History for KMWC - November, 2013

Change the Weather History Date:

Wednesday, November 13, 2013

  Actual Average Record
Temperature  
Mean Temperature 30 °F -  
Max Temperature 42 °F 44 °F 68 °F (1989)
Min Temperature 19 °F 30 °F 4 °F (1986)
Degree Days  
Heating Degree Days 34    
Moisture  
Dew Point 13 °F    
Average Humidity 54    
Maximum Humidity 74    
Minimum Humidity 25    
Precipitation  
Precipitation 0.00 in - - ()
Sea Level Pressure  
Sea Level Pressure 30.31 in    
Wind  
Wind Speed 11 mph (SW)    
Max Wind Speed 22 mph    
Max Gust Speed 34 mph    
Visibility 10 miles    
Events      
Averages and records for this station are not official NWS values.
T = Trace of Precipitation, MM = Missing Value Source: NWS Daily Summary

Daily Weather History Graph

Daily Weather History Graph

Search for Another Location

Airport or City:

Trip Planner

Search our weather history database for the weather conditions in past years. The results will help you decide how hot, cold, wet, or windy it might be!

Date:

Astronomy

Nov. 13, 2013 Rise Set
Actual Time 6:42 AM CST 4:29 PM CST
Civil Twilight 6:12 AM CST 5:00 PM CST
Nautical Twilight 5:37 AM CST 5:34 PM CST
Astronomical Twilight 5:04 AM CST 6:08 PM CST
Moon 2:22 PM CST (11/13) 2:29 AM CST (11/13)
Length of Visible Light 10h 48m
Length of Day
9h 47m
Waxing Gibbous, 85% of the Moon is Illuminated
Nov 13
Waxing Gibbous
Nov 17
Full
Nov 25
Last Quarter
Dec 2
New
Dec 9
First Quarter

Hourly Weather History & Observations

Time (CST) Temp. Windchill Dew Point Humidity Pressure Visibility Wind Dir Wind Speed Gust Speed Precip Events Conditions
12:15 AM 21.2 °F 12.6 °F 14.0 °F 74% 30.54 in 10.0 mi WSW 6.9 mph - N/A   Clear
12:35 AM 21.2 °F 12.6 °F 14.0 °F 74% 30.53 in 10.0 mi WSW 6.9 mph - N/A   Clear
12:55 AM 21.2 °F 11.7 °F 14.0 °F 74% 30.53 in 10.0 mi WSW 8.1 mph - N/A   Clear
1:15 AM 21.2 °F 11.7 °F 14.0 °F 74% 30.52 in 10.0 mi WSW 8.1 mph - N/A   Clear
1:35 AM 21.2 °F 11.7 °F 14.0 °F 74% 30.52 in 10.0 mi WSW 8.1 mph - N/A   Clear
1:55 AM 21.2 °F 12.6 °F 14.0 °F 74% 30.52 in 10.0 mi West 6.9 mph - N/A   Clear
2:15 AM 21.2 °F 11.7 °F 14.0 °F 74% 30.52 in 10.0 mi West 8.1 mph - N/A   Clear
2:35 AM 21.2 °F 13.6 °F 14.0 °F 74% 30.51 in 10.0 mi WSW 5.8 mph - N/A   Clear
2:55 AM 21.2 °F 10.9 °F 14.0 °F 74% 30.51 in 10.0 mi WSW 9.2 mph - N/A   Clear
3:15 AM 21.2 °F 10.9 °F 14.0 °F 74% 30.50 in 10.0 mi WSW 9.2 mph - N/A   Clear
3:35 AM 21.2 °F 10.9 °F 12.2 °F 68% 30.49 in 10.0 mi WSW 9.2 mph - N/A   Clear
3:55 AM 21.2 °F 10.9 °F 12.2 °F 68% 30.49 in 10.0 mi WSW 9.2 mph - N/A   Clear
4:15 AM 21.2 °F 11.7 °F 14.0 °F 74% 30.48 in 10.0 mi SW 8.1 mph - N/A   Clear
4:35 AM 21.2 °F 9.5 °F 12.2 °F 68% 30.48 in 10.0 mi WSW 11.5 mph - N/A   Clear
4:55 AM 21.2 °F 10.9 °F 12.2 °F 68% 30.48 in 10.0 mi SW 9.2 mph - N/A   Clear
5:15 AM 19.4 °F 8.6 °F 12.2 °F 74% 30.47 in 10.0 mi SW 9.2 mph - N/A   Clear
5:35 AM 21.2 °F 11.7 °F 12.2 °F 68% 30.47 in 10.0 mi SW 8.1 mph - N/A   Clear
5:55 AM 19.4 °F 9.5 °F 12.2 °F 74% 30.46 in 10.0 mi SW 8.1 mph - N/A   Clear
6:15 AM 19.4 °F 9.5 °F 12.2 °F 74% 30.46 in 10.0 mi SSW 8.1 mph - N/A   Clear
6:35 AM 21.2 °F 12.6 °F 12.2 °F 68% 30.45 in 10.0 mi SW 6.9 mph - N/A   Clear
6:45 AM 19.4 °F 9.5 °F 12.2 °F 74% 30.45 in 10.0 mi SW 8.1 mph - N/A   Clear
7:45 AM 21.2 °F 10.1 °F 12.2 °F 68% 30.45 in 10.0 mi SW 10.4 mph - N/A   Clear
8:45 AM 26.6 °F 16.2 °F 12.2 °F 55% 30.42 in 10.0 mi SW 11.5 mph 17.3 mph N/A   Clear
9:45 AM 30.2 °F 18.5 °F 10.4 °F 44% 30.37 in 10.0 mi SW 17.3 mph 21.9 mph N/A   Clear
10:45 AM 35.6 °F 24.5 °F 8.6 °F 33% 30.33 in 10.0 mi SW 20.7 mph 25.3 mph N/A   Clear
11:45 AM 37.4 °F 27.2 °F 6.8 °F 28% 30.31 in 10.0 mi SW 19.6 mph 34.5 mph N/A   Clear
12:45 PM 39.2 °F 29.6 °F 6.8 °F 26% 30.26 in 10.0 mi SW 19.6 mph 29.9 mph N/A   Clear
1:45 PM 42.8 °F 34.5 °F 8.6 °F 25% 30.22 in 10.0 mi SW 18.4 mph 34.5 mph N/A   Clear
2:45 PM 42.8 °F 33.8 °F 8.6 °F 25% 30.18 in 10.0 mi SW 21.9 mph 25.3 mph N/A   Clear
3:45 PM 41.0 °F 31.6 °F 10.4 °F 29% 30.15 in 10.0 mi SW 20.7 mph 32.2 mph N/A   Clear
4:45 PM 37.4 °F 28.2 °F 14.0 °F 38% 30.14 in 10.0 mi SW 16.1 mph 26.5 mph N/A   Clear
5:45 PM 35.6 °F 25.9 °F 15.8 °F 44% 30.14 in 10.0 mi SW 16.1 mph 23.0 mph N/A   Clear
6:45 PM 35.6 °F 25.9 °F 15.8 °F 44% 30.11 in 10.0 mi SW 16.1 mph 24.2 mph N/A   Clear
7:45 PM 35.6 °F 25.9 °F 15.8 °F 44% 30.10 in 10.0 mi SW 16.1 mph 20.7 mph N/A   Clear
8:15 PM 35.6 °F 25.9 °F 15.8 °F 44% 30.09 in 10.0 mi SW 16.1 mph 31.1 mph N/A   Clear
8:35 PM 35.6 °F 25.5 °F 14.0 °F 41% 30.09 in 10.0 mi SW 17.3 mph 25.3 mph N/A   Clear
8:45 PM 35.6 °F 25.2 °F 14.0 °F 41% 30.09 in 10.0 mi SW 18.4 mph 26.5 mph N/A   Clear
8:55 PM 35.6 °F 27.1 °F 14.0 °F 41% 30.08 in 10.0 mi SW 12.7 mph 27.6 mph N/A   Clear
9:15 PM 35.6 °F 25.9 °F 14.0 °F 41% 30.08 in 10.0 mi SW 16.1 mph 28.8 mph N/A   Clear
9:35 PM 35.6 °F 26.2 °F 14.0 °F 41% 30.08 in 10.0 mi SW 15.0 mph 24.2 mph N/A   Clear
9:55 PM 35.6 °F 24.8 °F 14.0 °F 41% 30.08 in 10.0 mi SW 19.6 mph 29.9 mph N/A   Clear
10:15 PM 35.6 °F 24.8 °F 14.0 °F 41% 30.07 in 10.0 mi SW 19.6 mph 24.2 mph N/A   Clear
10:35 PM 35.6 °F 25.2 °F 14.0 °F 41% 30.07 in 10.0 mi SW 18.4 mph 32.2 mph N/A   Clear
10:55 PM 35.6 °F 25.9 °F 14.0 °F 41% 30.07 in 10.0 mi SW 16.1 mph 29.9 mph N/A   Clear
11:15 PM 35.6 °F 25.9 °F 14.0 °F 41% 30.06 in 10.0 mi SW 16.1 mph 26.5 mph N/A   Clear
11:35 PM 35.6 °F 24.8 °F 14.0 °F 41% 30.06 in 10.0 mi SW 19.6 mph 26.5 mph N/A   Clear
11:55 PM 35.6 °F 25.9 °F 14.0 °F 41% 30.06 in 10.0 mi SW 16.1 mph 26.5 mph N/A   Clear